date,time,SUV Intensity [MED/Hr],UV Index,Daily total [MED],Since Last [MED]
20/07/2022,00:10:38,-0.001,0.0,0.0,0.0
20/07/2022,00:11:38,0.000,0.0,0.0,0.0
20/07/2022,00:12:38,-0.000,0.0,0.0,0.0
20/07/2022,00:13:38,-0.001,0.0,0.0,0.0
20/07/2022,00:14:38,0.001,0.0,0.0,0.0
20/07/2022,00:15:38,0.000,0.0,0.0,0.0
20/07/2022,00:16:38,0.000,0.0,0.0,0.0
20/07/2022,00:17:38,0.000,0.0,0.0,0.0
20/07/2022,00:18:46,0.001,0.0,0.0,0.0
20/07/2022,00:19:38,0.001,0.0,0.0,0.0
20/07/2022,00:20:46,0.000,0.0,0.0,0.0
20/07/2022,00:21:39,-0.001,0.0,0.0,0.0
20/07/2022,00:22:38,-0.000,0.0,0.0,0.0
20/07/2022,00:23:38,0.001,0.0,0.0,0.0
20/07/2022,00:24:38,0.000,0.0,0.0,0.0
20/07/2022,00:25:38,0.000,0.0,0.0,0.0
20/07/2022,00:26:38,0.000,0.0,0.0,0.0
20/07/2022,00:27:38,0.000,0.0,0.0,0.0
20/07/2022,00:28:46,0.001,0.0,0.0,0.0
20/07/2022,00:29:38,0.000,0.0,0.0,0.0
20/07/2022,00:30:38,0.000,0.0,0.0,0.0
20/07/2022,00:31:38,0.001,0.0,0.0,0.0
20/07/2022,00:32:38,0.001,0.0,0.0,0.0
20/07/2022,00:33:39,0.002,0.0,0.0,0.0
20/07/2022,00:34:38,0.001,0.0,0.0,0.0
20/07/2022,00:35:39,0.002,0.0,0.0,0.0
20/07/2022,00:36:38,0.001,0.0,0.0,0.0
20/07/2022,00:37:38,0.000,0.0,0.0,0.0
20/07/2022,00:38:38,0.002,0.0,0.0,0.0
20/07/2022,00:39:39,0.002,0.0,0.0,0.0
20/07/2022,00:40:38,0.001,0.0,0.0,0.0
20/07/2022,00:42:39,0.000,0.0,0.0,0.0
20/07/2022,00:43:38,0.001,0.0,0.0,0.0
20/07/2022,00:44:39,0.000,0.0,0.0,0.0
20/07/2022,00:45:38,0.001,0.0,0.0,0.0
20/07/2022,00:46:39,0.001,0.0,0.0,0.0
20/07/2022,00:47:38,0.002,0.0,0.0,0.0
20/07/2022,00:48:39,0.001,0.0,0.0,0.0
20/07/2022,00:49:38,0.001,0.0,0.0,0.0
20/07/2022,00:50:39,0.001,0.0,0.0,0.0
20/07/2022,00:51:38,0.001,0.0,0.0,0.0
20/07/2022,00:52:39,0.001,0.0,0.0,0.0
20/07/2022,00:53:38,0.001,0.0,0.0,0.0
20/07/2022,00:54:38,0.000,0.0,0.0,0.0
20/07/2022,00:55:38,0.001,0.0,0.0,0.0
20/07/2022,00:56:38,0.003,0.0,0.0,0.0
20/07/2022,00:57:46,0.002,0.0,0.0,0.0
20/07/2022,00:58:38,0.001,0.0,0.0,0.0
20/07/2022,00:59:47,0.001,0.0,0.0,0.0
20/07/2022,01:00:38,0.001,0.0,0.0,0.0
20/07/2022,01:01:38,0.001,0.0,0.0,0.0
20/07/2022,01:02:46,0.001,0.0,0.0,0.0
20/07/2022,01:04:38,0.001,0.0,0.0,0.0
20/07/2022,01:05:50,0.000,0.0,0.0,0.0
20/07/2022,01:07:39,0.001,0.0,0.0,0.0
20/07/2022,01:08:38,0.001,0.0,0.0,0.0
20/07/2022,01:09:38,0.001,0.0,0.0,0.0
20/07/2022,01:10:39,0.000,0.0,0.0,0.0
20/07/2022,01:11:38,0.001,0.0,0.0,0.0
20/07/2022,01:12:38,0.002,0.0,0.0,0.0
20/07/2022,01:13:38,0.002,0.0,0.0,0.0
20/07/2022,01:14:46,0.003,0.0,0.0,0.0
20/07/2022,01:15:38,0.002,0.0,0.0,0.0
20/07/2022,01:16:39,0.002,0.0,0.0,0.0
20/07/2022,01:17:39,0.001,0.0,0.0,0.0
20/07/2022,01:18:39,0.001,0.0,0.0,0.0
20/07/2022,01:19:38,0.003,0.0,0.0,0.0
20/07/2022,01:20:38,0.002,0.0,0.0,0.0
20/07/2022,01:21:41,0.002,0.0,0.0,0.0
20/07/2022,01:22:38,0.002,0.0,0.0,0.0
20/07/2022,01:23:38,0.002,0.0,0.0,0.0
20/07/2022,01:24:38,0.002,0.0,0.0,0.0
20/07/2022,01:25:38,0.002,0.0,0.0,0.0
20/07/2022,01:26:38,0.003,0.0,0.0,0.0
20/07/2022,01:27:39,0.002,0.0,0.0,0.0
20/07/2022,01:28:46,0.003,0.0,0.0,0.0
20/07/2022,01:29:38,0.002,0.0,0.0,0.0
20/07/2022,01:30:38,0.002,0.0,0.0,0.0
20/07/2022,01:31:38,0.002,0.0,0.0,0.0
20/07/2022,01:32:39,0.002,0.0,0.0,0.0
20/07/2022,01:33:38,0.002,0.0,0.0,0.0
20/07/2022,01:34:38,0.002,0.0,0.0,0.0
20/07/2022,01:35:38,0.002,0.0,0.0,0.0
20/07/2022,01:36:38,0.003,0.0,0.0,0.0
20/07/2022,01:37:38,0.002,0.0,0.0,0.0
20/07/2022,01:38:38,0.002,0.0,0.0,0.0
20/07/2022,01:39:38,0.002,0.0,0.0,0.0
20/07/2022,01:40:38,0.001,0.0,0.0,0.0
20/07/2022,01:41:38,0.003,0.0,0.0,0.0
20/07/2022,01:42:38,0.001,0.0,0.0,0.0
20/07/2022,01:43:46,0.003,0.0,0.0,0.0
20/07/2022,01:44:38,0.002,0.0,0.0,0.0
20/07/2022,01:45:39,0.002,0.0,0.0,0.0
20/07/2022,01:46:38,0.003,0.0,0.0,0.0
20/07/2022,01:47:38,0.002,0.0,0.0,0.0
20/07/2022,01:48:39,0.002,0.0,0.0,0.0
20/07/2022,01:49:38,0.002,0.0,0.0,0.0
20/07/2022,01:50:39,0.002,0.0,0.0,0.0
20/07/2022,01:51:38,0.003,0.0,0.0,0.0
20/07/2022,01:52:38,0.003,0.0,0.0,0.0
20/07/2022,01:53:38,0.002,0.0,0.0,0.0
20/07/2022,01:54:46,0.002,0.0,0.0,0.0
20/07/2022,01:56:39,0.003,0.0,0.0,0.0
20/07/2022,01:57:46,0.003,0.0,0.0,0.0
20/07/2022,01:58:39,0.002,0.0,0.0,0.0
20/07/2022,01:59:38,0.004,0.0,0.0,0.0
20/07/2022,02:00:38,0.002,0.0,0.0,0.0
20/07/2022,02:01:38,0.003,0.0,0.0,0.0
20/07/2022,02:02:39,0.003,0.0,0.0,0.0
20/07/2022,02:03:39,0.003,0.0,0.0,0.0
20/07/2022,02:04:39,0.003,0.0,0.0,0.0
20/07/2022,02:05:38,0.004,0.0,0.0,0.0
20/07/2022,02:06:47,0.004,0.0,0.0,0.0
20/07/2022,02:08:39,0.004,0.0,0.0,0.0
20/07/2022,02:09:38,0.004,0.0,0.0,0.0
20/07/2022,02:10:38,0.004,0.0,0.0,0.0
20/07/2022,02:11:38,0.004,0.0,0.0,0.0
20/07/2022,02:12:38,0.003,0.0,0.0,0.0
20/07/2022,02:13:39,0.004,0.0,0.0,0.0
20/07/2022,02:14:38,0.004,0.0,0.0,0.0
20/07/2022,02:15:38,0.004,0.0,0.0,0.0
20/07/2022,02:16:39,0.003,0.0,0.0,0.0
20/07/2022,02:17:38,0.003,0.0,0.0,0.0
20/07/2022,02:18:38,0.004,0.0,0.0,0.0
20/07/2022,02:19:39,0.004,0.0,0.0,0.0
20/07/2022,02:20:38,0.004,0.0,0.0,0.0
20/07/2022,02:21:39,0.004,0.0,0.0,0.0
20/07/2022,02:22:38,0.004,0.0,0.0,0.0
20/07/2022,02:23:38,0.003,0.0,0.0,0.0
20/07/2022,02:24:38,0.005,0.0,0.0,0.0
20/07/2022,02:25:39,0.004,0.0,0.0,0.0
20/07/2022,02:26:38,0.004,0.0,0.0,0.0
20/07/2022,02:27:39,0.004,0.0,0.0,0.0
20/07/2022,02:28:38,0.004,0.0,0.0,0.0
20/07/2022,02:29:39,0.003,0.0,0.0,0.0
20/07/2022,02:30:39,0.005,0.0,0.0,0.0
20/07/2022,02:31:39,0.004,0.0,0.0,0.0
20/07/2022,02:32:48,0.004,0.0,0.0,0.0
20/07/2022,02:33:38,0.005,0.0,0.0,0.0
20/07/2022,02:34:39,0.004,0.0,0.0,0.0
20/07/2022,02:35:46,0.004,0.0,0.0,0.0
20/07/2022,02:36:38,0.004,0.0,0.0,0.0
20/07/2022,02:37:38,0.004,0.0,0.0,0.0
20/07/2022,02:38:38,0.005,0.0,0.0,0.0
20/07/2022,02:39:39,0.004,0.0,0.0,0.0
20/07/2022,02:40:38,0.004,0.0,0.0,0.0
20/07/2022,02:41:38,0.004,0.0,0.0,0.0
20/07/2022,02:42:38,0.003,0.0,0.0,0.0
20/07/2022,02:43:38,0.004,0.0,0.0,0.0
20/07/2022,02:44:39,0.005,0.0,0.0,0.0
20/07/2022,02:45:38,0.004,0.0,0.0,0.0
20/07/2022,02:46:38,0.004,0.0,0.0,0.0
20/07/2022,02:47:38,0.004,0.0,0.0,0.0
20/07/2022,02:48:38,0.004,0.0,0.0,0.0
20/07/2022,02:49:38,0.004,0.0,0.0,0.0
20/07/2022,02:50:38,0.004,0.0,0.0,0.0
20/07/2022,02:51:38,0.004,0.0,0.0,0.0
20/07/2022,02:52:38,0.004,0.0,0.0,0.0
20/07/2022,02:53:38,0.003,0.0,0.0,0.0
20/07/2022,02:54:38,0.003,0.0,0.0,0.0
20/07/2022,02:55:39,0.005,0.0,0.0,0.0
20/07/2022,02:56:38,0.004,0.0,0.0,0.0
20/07/2022,02:57:39,0.005,0.0,0.0,0.0
20/07/2022,02:58:38,0.005,0.0,0.0,0.0
20/07/2022,02:59:47,0.005,0.0,0.0,0.0
20/07/2022,03:00:38,0.006,0.0,0.0,0.0
20/07/2022,03:01:39,0.005,0.0,0.0,0.0
20/07/2022,03:02:38,0.006,0.0,0.0,0.0
20/07/2022,03:03:38,0.005,0.0,0.0,0.0
20/07/2022,03:04:46,0.006,0.0,0.0,0.0
20/07/2022,03:05:39,0.005,0.0,0.0,0.0
20/07/2022,03:06:39,0.006,0.0,0.0,0.0
20/07/2022,03:07:38,0.005,0.0,0.0,0.0
20/07/2022,03:08:39,0.006,0.0,0.0,0.0
20/07/2022,03:09:38,0.006,0.0,0.0,0.0
20/07/2022,03:10:38,0.005,0.0,0.0,0.0
20/07/2022,03:11:38,0.005,0.0,0.0,0.0
20/07/2022,03:12:39,0.005,0.0,0.0,0.0
20/07/2022,03:13:38,0.004,0.0,0.0,0.0
20/07/2022,03:14:38,0.006,0.0,0.0,0.0
20/07/2022,03:15:38,0.006,0.0,0.0,0.0
20/07/2022,03:16:39,0.005,0.0,0.0,0.0
20/07/2022,03:17:39,0.005,0.0,0.0,0.0
20/07/2022,03:18:39,0.005,0.0,0.0,0.0
20/07/2022,03:19:38,0.005,0.0,0.0,0.0
20/07/2022,03:20:38,0.006,0.0,0.0,0.0
20/07/2022,03:21:38,0.005,0.0,0.0,0.0
20/07/2022,03:22:39,0.005,0.0,0.0,0.0
20/07/2022,03:23:39,0.005,0.0,0.0,0.0
20/07/2022,03:24:39,0.005,0.0,0.0,0.0
20/07/2022,03:25:46,0.005,0.0,0.0,0.0
20/07/2022,03:27:39,0.005,0.0,0.0,0.0
20/07/2022,03:28:47,0.004,0.0,0.0,0.0
20/07/2022,03:29:38,0.006,0.0,0.0,0.0
20/07/2022,03:30:39,0.005,0.0,0.0,0.0
20/07/2022,03:31:38,0.005,0.0,0.0,0.0
20/07/2022,03:32:40,0.005,0.0,0.0,0.0
20/07/2022,03:33:39,0.004,0.0,0.0,0.0
20/07/2022,03:34:39,0.007,0.0,0.0,0.0
20/07/2022,03:35:39,0.005,0.0,0.0,0.0
20/07/2022,03:36:38,0.005,0.0,0.0,0.0
20/07/2022,03:37:38,0.006,0.0,0.0,0.0
20/07/2022,03:38:39,0.005,0.0,0.0,0.0
20/07/2022,03:39:38,0.006,0.0,0.0,0.0
20/07/2022,03:40:39,0.006,0.0,0.0,0.0
20/07/2022,03:41:38,0.005,0.0,0.001,0.001
20/07/2022,03:42:38,0.006,0.0,0.001,0.0
20/07/2022,03:43:55,0.005,0.0,0.001,0.0
20/07/2022,03:45:39,0.005,0.0,0.001,0.0
20/07/2022,03:46:38,0.005,0.0,0.001,0.0
20/07/2022,03:47:38,0.005,0.0,0.001,0.0
20/07/2022,03:48:39,0.005,0.0,0.001,0.0
20/07/2022,03:49:38,0.005,0.0,0.001,0.0
20/07/2022,03:50:39,0.005,0.0,0.001,0.0
20/07/2022,03:51:38,0.005,0.0,0.001,0.0
20/07/2022,03:52:38,0.006,0.0,0.001,0.0
20/07/2022,03:53:39,0.006,0.0,0.001,0.0
20/07/2022,03:54:46,0.006,0.0,0.001,0.0
20/07/2022,03:55:34,0.006,0.0,0.001,0.0
20/07/2022,03:56:38,0.005,0.0,0.001,0.0
20/07/2022,03:57:47,0.006,0.0,0.001,0.0
20/07/2022,03:59:39,0.005,0.0,0.001,0.0
20/07/2022,04:00:38,0.006,0.0,0.001,0.0
20/07/2022,04:01:39,0.005,0.0,0.001,0.0
20/07/2022,04:02:38,0.006,0.0,0.001,0.0
20/07/2022,04:03:38,0.006,0.0,0.001,0.0
20/07/2022,04:04:39,0.006,0.0,0.001,0.0
20/07/2022,04:05:38,0.005,0.0,0.001,0.0
20/07/2022,04:06:38,0.005,0.0,0.001,0.0
20/07/2022,04:07:39,0.005,0.0,0.001,0.0
20/07/2022,04:08:38,0.005,0.0,0.001,0.0
20/07/2022,04:09:39,0.005,0.0,0.001,0.0
20/07/2022,04:10:39,0.005,0.0,0.001,0.0
20/07/2022,04:11:39,0.005,0.0,0.001,0.0
20/07/2022,04:12:46,0.005,0.0,0.001,0.0
20/07/2022,04:13:39,0.007,0.0,0.001,0.0
20/07/2022,04:14:39,0.006,0.0,0.001,0.0
20/07/2022,04:15:38,0.004,0.0,0.001,0.0
20/07/2022,04:16:38,0.006,0.0,0.001,0.0
20/07/2022,04:17:38,0.004,0.0,0.001,0.0
20/07/2022,04:18:47,0.006,0.0,0.001,0.0
20/07/2022,04:19:38,0.006,0.0,0.001,0.0
20/07/2022,04:20:39,0.004,0.0,0.001,0.0
20/07/2022,04:21:47,0.006,0.0,0.001,0.0
20/07/2022,04:22:38,0.006,0.0,0.001,0.0
20/07/2022,04:23:47,0.006,0.0,0.001,0.0
20/07/2022,04:24:39,0.006,0.0,0.001,0.0
20/07/2022,04:25:39,0.006,0.0,0.001,0.0
20/07/2022,04:26:38,0.005,0.0,0.001,0.0
20/07/2022,04:27:40,0.005,0.0,0.001,0.0
20/07/2022,04:28:38,0.006,0.0,0.001,0.0
20/07/2022,04:29:38,0.006,0.0,0.001,0.0
20/07/2022,04:30:39,0.007,0.0,0.001,0.0
20/07/2022,04:31:39,0.005,0.0,0.001,0.0
20/07/2022,04:32:39,0.006,0.0,0.002,0.001
20/07/2022,04:33:39,0.007,0.0,0.002,0.0
20/07/2022,04:34:38,0.006,0.0,0.002,0.0
20/07/2022,04:35:39,0.006,0.0,0.002,0.0
20/07/2022,04:36:38,0.007,0.0,0.002,0.0
20/07/2022,04:37:38,0.005,0.0,0.002,0.0
20/07/2022,04:38:39,0.006,0.0,0.002,0.0
20/07/2022,04:39:38,0.006,0.0,0.002,0.0
20/07/2022,04:40:39,0.007,0.0,0.002,0.0
20/07/2022,04:41:47,0.006,0.0,0.002,0.0
20/07/2022,04:42:45,0.006,0.0,0.002,0.0
20/07/2022,04:43:39,0.007,0.0,0.002,0.0
20/07/2022,04:44:39,0.007,0.0,0.003,0.001
20/07/2022,04:45:38,0.007,0.0,0.003,0.0
20/07/2022,04:46:38,0.007,0.0,0.003,0.0
20/07/2022,04:47:47,0.007,0.0,0.003,0.0
20/07/2022,04:49:39,0.008,0.0,0.003,0.0
20/07/2022,04:50:47,0.008,0.0,0.003,0.0
20/07/2022,04:51:38,0.008,0.0,0.003,0.0
20/07/2022,04:52:39,0.008,0.0,0.004,0.001
20/07/2022,04:53:38,0.008,0.0,0.004,0.0
20/07/2022,04:54:39,0.008,0.0,0.004,0.0
20/07/2022,04:55:38,0.008,0.0,0.004,0.0
20/07/2022,04:56:39,0.008,0.0,0.004,0.0
20/07/2022,04:57:39,0.008,0.0,0.004,0.0
20/07/2022,04:58:39,0.007,0.0,0.004,0.0
20/07/2022,04:59:39,0.009,0.0,0.005,0.001
20/07/2022,05:00:38,0.008,0.0,0.005,0.0
20/07/2022,05:01:39,0.009,0.0,0.005,0.0
20/07/2022,05:02:39,0.009,0.0,0.005,0.0
20/07/2022,05:03:38,0.008,0.0,0.005,0.0
20/07/2022,05:04:47,0.009,0.0,0.005,0.0
20/07/2022,05:05:39,0.010,0.0,0.005,0.0
20/07/2022,05:06:39,0.010,0.0,0.006,0.001
20/07/2022,05:07:38,0.008,0.0,0.006,0.0
20/07/2022,05:08:47,0.008,0.0,0.006,0.0
20/07/2022,05:09:39,0.009,0.0,0.006,0.0
20/07/2022,05:10:39,0.009,0.0,0.006,0.0
20/07/2022,05:11:39,0.010,0.0,0.006,0.0
20/07/2022,05:12:39,0.009,0.0,0.006,0.0
20/07/2022,05:13:38,0.011,0.0,0.007,0.001
20/07/2022,05:14:39,0.010,0.0,0.007,0.0
20/07/2022,05:15:39,0.011,0.0,0.007,0.0
20/07/2022,05:16:38,0.012,0.0,0.007,0.0
20/07/2022,05:17:39,0.013,0.0,0.007,0.0
20/07/2022,05:18:39,0.013,0.0,0.008,0.001
20/07/2022,05:19:47,0.013,0.0,0.008,0.0
20/07/2022,05:20:38,0.014,0.0,0.008,0.0
20/07/2022,05:21:39,0.013,0.0,0.008,0.0
20/07/2022,05:22:47,0.013,0.0,0.009,0.001
20/07/2022,05:23:39,0.012,0.0,0.009,0.0
20/07/2022,05:24:39,0.013,0.0,0.009,0.0
20/07/2022,05:25:47,0.013,0.0,0.009,0.0
20/07/2022,05:26:38,0.014,0.0,0.009,0.0
20/07/2022,05:27:39,0.013,0.0,0.01,0.001
20/07/2022,05:28:47,0.013,0.0,0.01,0.0
20/07/2022,05:29:39,0.013,0.0,0.01,0.0
20/07/2022,05:30:40,0.012,0.0,0.01,0.0
20/07/2022,05:31:39,0.014,0.0,0.01,0.0
20/07/2022,05:32:38,0.014,0.0,0.011,0.001
20/07/2022,05:33:38,0.013,0.0,0.011,0.0
20/07/2022,05:34:39,0.015,0.0,0.011,0.0
20/07/2022,05:35:39,0.015,0.0,0.011,0.0
20/07/2022,05:36:39,0.018,0.0,0.012,0.001
20/07/2022,05:37:39,0.020,0.0,0.012,0.0
20/07/2022,05:38:39,0.020,0.0,0.012,0.0
20/07/2022,05:39:39,0.021,0.0,0.013,0.001
20/07/2022,05:40:39,0.022,0.0,0.013,0.0
20/07/2022,05:41:39,0.023,0.0,0.013,0.0
20/07/2022,05:42:39,0.024,0.0,0.014,0.001
20/07/2022,05:43:38,0.026,0.0,0.014,0.0
20/07/2022,05:44:39,0.028,0.0,0.015,0.001
20/07/2022,05:45:39,0.027,0.0,0.015,0.0
20/07/2022,05:46:47,0.028,0.0,0.016,0.001
20/07/2022,05:48:39,0.027,0.0,0.016,0.0
20/07/2022,05:49:38,0.026,0.0,0.017,0.001
20/07/2022,05:50:38,0.028,0.0,0.017,0.0
20/07/2022,05:51:38,0.030,0.0,0.018,0.001
20/07/2022,05:52:38,0.033,0.0,0.018,0.0
20/07/2022,05:53:39,0.034,0.0,0.019,0.001
20/07/2022,05:54:39,0.036,0.0,0.019,0.0
20/07/2022,05:55:38,0.036,0.0,0.02,0.001
20/07/2022,05:56:39,0.035,0.0,0.021,0.001
20/07/2022,05:57:39,0.034,0.0,0.021,0.0
20/07/2022,05:58:39,0.031,0.0,0.022,0.001
20/07/2022,05:59:39,0.028,0.0,0.022,0.0
20/07/2022,06:00:51,0.024,0.0,0.023,0.001
20/07/2022,06:02:39,0.019,0.0,0.023,0.0
20/07/2022,06:03:39,0.017,0.0,0.024,0.001
20/07/2022,06:04:39,0.016,0.0,0.024,0.0
20/07/2022,06:05:39,0.016,0.0,0.024,0.0
20/07/2022,06:06:46,0.017,0.0,0.025,0.001
20/07/2022,06:07:37,0.016,0.0,0.025,0.0
20/07/2022,06:08:39,0.016,0.0,0.025,0.0
20/07/2022,06:09:47,0.015,0.0,0.025,0.0
20/07/2022,06:10:39,0.016,0.0,0.026,0.001
20/07/2022,06:12:39,0.016,0.0,0.026,0.0
20/07/2022,06:13:39,0.017,0.0,0.026,0.0
20/07/2022,06:14:39,0.015,0.0,0.027,0.001
20/07/2022,06:15:47,0.015,0.0,0.027,0.0
20/07/2022,06:17:39,0.015,0.0,0.027,0.0
20/07/2022,06:18:38,0.016,0.0,0.028,0.001
20/07/2022,06:19:39,0.017,0.0,0.028,0.0
20/07/2022,06:20:39,0.019,0.0,0.028,0.0
20/07/2022,06:21:39,0.021,0.0,0.029,0.001
20/07/2022,06:22:39,0.024,0.0,0.029,0.0
20/07/2022,06:23:39,0.025,0.0,0.029,0.0
20/07/2022,06:24:38,0.032,0.0,0.03,0.001
20/07/2022,06:25:39,0.038,0.0,0.03,0.0
20/07/2022,06:26:39,0.038,0.0,0.031,0.001
20/07/2022,06:27:39,0.041,0.0,0.032,0.001
20/07/2022,06:28:40,0.045,0.0,0.032,0.0
20/07/2022,06:29:39,0.054,0.0,0.033,0.001
20/07/2022,06:30:39,0.062,0.0,0.034,0.001
20/07/2022,06:31:39,0.061,0.0,0.035,0.001
20/07/2022,06:32:51,0.064,0.0,0.036,0.001
20/07/2022,06:34:39,0.070,0.0,0.038,0.002
20/07/2022,06:35:38,0.068,0.0,0.04,0.002
20/07/2022,06:36:38,0.069,0.0,0.041,0.001
20/07/2022,06:37:39,0.068,0.0,0.042,0.001
20/07/2022,06:38:47,0.066,0.0,0.043,0.001
20/07/2022,06:39:38,0.066,0.0,0.044,0.001
20/07/2022,06:40:39,0.069,0.0,0.045,0.001
20/07/2022,06:43:08,0.076,0.0,0.048,0.003
20/07/2022,06:44:39,0.083,0.0,0.05,0.002
20/07/2022,06:45:39,0.087,0.0,0.052,0.002
20/07/2022,06:46:39,0.086,0.0,0.053,0.001
20/07/2022,06:47:48,0.085,0.0,0.055,0.002
20/07/2022,06:48:39,0.081,0.0,0.056,0.001
20/07/2022,06:49:39,0.078,0.0,0.057,0.001
20/07/2022,06:50:39,0.080,0.0,0.059,0.002
20/07/2022,06:51:39,0.088,0.0,0.06,0.001
20/07/2022,06:52:39,0.095,0.0,0.062,0.002
20/07/2022,06:53:38,0.100,0.0,0.063,0.001
20/07/2022,06:54:42,0.104,0.0,0.065,0.002
20/07/2022,06:55:38,0.107,0.0,0.067,0.002
20/07/2022,06:56:39,0.110,0.0,0.068,0.001
20/07/2022,06:57:39,0.112,0.0,0.07,0.002
20/07/2022,06:58:39,0.115,0.0,0.072,0.002
20/07/2022,06:59:39,0.114,0.0,0.074,0.002
20/07/2022,07:00:39,0.115,0.0,0.076,0.002
20/07/2022,07:01:39,0.119,0.0,0.078,0.002
20/07/2022,07:02:39,0.124,0.0,0.08,0.002
20/07/2022,07:03:38,0.129,0.0,0.082,0.002
20/07/2022,07:04:38,0.133,0.0,0.084,0.002
20/07/2022,07:05:39,0.136,0.0,0.086,0.002
20/07/2022,07:06:39,0.139,0.0,0.089,0.003
20/07/2022,07:07:39,0.141,0.0,0.091,0.002
20/07/2022,07:08:39,0.138,0.0,0.093,0.002
20/07/2022,07:09:39,0.136,0.0,0.096,0.003
20/07/2022,07:10:39,0.134,0.0,0.098,0.002
20/07/2022,07:11:39,0.132,0.0,0.1,0.002
20/07/2022,07:12:39,0.131,0.0,0.102,0.002
20/07/2022,07:13:39,0.132,0.0,0.105,0.003
20/07/2022,07:14:39,0.132,0.0,0.107,0.002
20/07/2022,07:15:39,0.132,0.0,0.109,0.002
20/07/2022,07:16:47,0.131,0.0,0.111,0.002
20/07/2022,07:17:38,0.132,0.0,0.113,0.002
20/07/2022,07:18:39,0.135,0.0,0.116,0.003
20/07/2022,07:19:39,0.139,0.0,0.118,0.002
20/07/2022,07:20:39,0.146,0.0,0.12,0.002
20/07/2022,07:21:39,0.155,0.0,0.123,0.003
20/07/2022,07:22:39,0.161,0.0,0.125,0.002
20/07/2022,07:23:39,0.163,0.0,0.128,0.003
20/07/2022,07:24:41,0.157,0.0,0.131,0.003
20/07/2022,07:25:38,0.150,0.0,0.133,0.002
20/07/2022,07:26:38,0.144,0.0,0.136,0.003
20/07/2022,07:27:40,0.139,0.0,0.138,0.002
20/07/2022,07:28:39,0.137,0.0,0.14,0.002
20/07/2022,07:29:38,0.141,0.0,0.143,0.003
20/07/2022,07:30:39,0.146,0.0,0.145,0.002
20/07/2022,07:31:39,0.152,0.0,0.148,0.003
20/07/2022,07:32:39,0.161,0.0,0.15,0.002
20/07/2022,07:33:39,0.171,0.0,0.153,0.003
20/07/2022,07:34:39,0.181,0.0,0.156,0.003
20/07/2022,07:35:39,0.193,0.0,0.159,0.003
20/07/2022,07:36:39,0.207,0.0,0.162,0.003
20/07/2022,07:37:39,0.223,1.0,0.166,0.004
20/07/2022,07:38:38,0.238,1.0,0.17,0.004
20/07/2022,07:39:39,0.250,1.0,0.174,0.004
20/07/2022,07:40:39,0.272,1.0,0.178,0.004
20/07/2022,07:41:39,0.293,1.0,0.183,0.005
20/07/2022,07:42:39,0.313,1.0,0.188,0.005
20/07/2022,07:43:39,0.306,1.0,0.193,0.005
20/07/2022,07:44:39,0.294,1.0,0.198,0.005
20/07/2022,07:45:47,0.259,1.0,0.203,0.005
20/07/2022,07:46:38,0.242,1.0,0.207,0.004
20/07/2022,07:47:38,0.229,1.0,0.211,0.004
20/07/2022,07:48:39,0.227,1.0,0.215,0.004
20/07/2022,07:49:39,0.231,1.0,0.218,0.003
20/07/2022,07:50:48,0.239,1.0,0.223,0.005
20/07/2022,07:51:37,0.249,1.0,0.226,0.003
20/07/2022,07:52:47,0.257,1.0,0.231,0.005
20/07/2022,07:53:39,0.262,1.0,0.235,0.004
20/07/2022,07:54:38,0.265,1.0,0.239,0.004
20/07/2022,07:55:39,0.265,1.0,0.244,0.005
20/07/2022,07:56:39,0.264,1.0,0.248,0.004
20/07/2022,07:57:40,0.262,1.0,0.253,0.005
20/07/2022,07:58:39,0.257,1.0,0.257,0.004
20/07/2022,07:59:39,0.250,1.0,0.261,0.004
20/07/2022,08:00:39,0.245,1.0,0.265,0.004
20/07/2022,08:01:30,0.242,1.0,0.269,0.004
20/07/2022,08:02:39,0.238,1.0,0.273,0.004
20/07/2022,08:03:39,0.238,1.0,0.277,0.004
20/07/2022,08:04:39,0.240,1.0,0.281,0.004
20/07/2022,08:05:39,0.246,1.0,0.285,0.004
20/07/2022,08:06:47,0.261,1.0,0.29,0.005
20/07/2022,08:07:39,0.282,1.0,0.294,0.004
20/07/2022,08:08:40,0.319,1.0,0.299,0.005
20/07/2022,08:09:39,0.352,1.0,0.305,0.006
20/07/2022,08:10:39,0.379,1.0,0.31,0.005
20/07/2022,08:11:39,0.402,1.0,0.317,0.007
20/07/2022,08:12:39,0.427,1.0,0.324,0.007
20/07/2022,08:13:39,0.444,1.0,0.331,0.007
20/07/2022,08:14:47,0.460,1.0,0.34,0.009
20/07/2022,08:15:39,0.473,1.0,0.347,0.007
20/07/2022,08:16:39,0.511,1.0,0.355,0.008
20/07/2022,08:17:39,0.507,1.0,0.363,0.008
20/07/2022,08:18:39,0.529,1.0,0.372,0.009
20/07/2022,08:19:39,0.528,1.0,0.381,0.009
20/07/2022,08:20:39,0.512,1.0,0.389,0.008
20/07/2022,08:21:39,0.511,1.0,0.398,0.009
20/07/2022,08:22:39,0.510,1.0,0.406,0.008
20/07/2022,08:23:39,0.489,1.0,0.415,0.009
20/07/2022,08:24:39,0.490,1.0,0.423,0.008
20/07/2022,08:25:39,0.515,1.0,0.431,0.008
20/07/2022,08:26:39,0.521,1.0,0.44,0.009
20/07/2022,08:27:39,0.519,1.0,0.449,0.009
20/07/2022,08:28:39,0.550,1.0,0.457,0.008
20/07/2022,08:29:39,0.577,1.0,0.467,0.01
20/07/2022,08:30:39,0.565,1.0,0.477,0.01
20/07/2022,08:31:30,0.563,1.0,0.484,0.007
20/07/2022,08:32:40,0.598,1.0,0.496,0.012
20/07/2022,08:33:39,0.570,1.0,0.505,0.009
20/07/2022,08:34:39,0.522,1.0,0.515,0.01
20/07/2022,08:35:39,0.518,1.0,0.523,0.008
20/07/2022,08:36:39,0.529,1.0,0.532,0.009
20/07/2022,08:37:39,0.534,1.0,0.541,0.009
20/07/2022,08:38:39,0.527,1.0,0.55,0.009
20/07/2022,08:39:39,0.516,1.0,0.558,0.008
20/07/2022,08:40:48,0.521,1.0,0.568,0.01
20/07/2022,08:41:39,0.523,1.0,0.576,0.008
20/07/2022,08:42:39,0.543,1.0,0.585,0.009
20/07/2022,08:43:48,0.594,1.0,0.595,0.01
20/07/2022,08:44:39,0.648,1.0,0.604,0.009
20/07/2022,08:45:39,0.638,1.0,0.615,0.011
20/07/2022,08:46:39,0.682,2.0,0.626,0.011
20/07/2022,08:47:39,0.688,2.0,0.637,0.011
20/07/2022,08:48:39,0.687,2.0,0.649,0.012
20/07/2022,08:49:39,0.722,2.0,0.661,0.012
20/07/2022,08:50:39,0.819,2.0,0.674,0.013
20/07/2022,08:51:39,0.827,2.0,0.687,0.013
20/07/2022,08:52:39,0.821,2.0,0.701,0.014
20/07/2022,08:53:39,0.779,2.0,0.715,0.014
20/07/2022,08:54:39,0.699,2.0,0.726,0.011
20/07/2022,08:55:40,0.687,2.0,0.738,0.012
20/07/2022,08:56:40,0.694,2.0,0.75,0.012
20/07/2022,08:57:39,0.691,2.0,0.761,0.011
20/07/2022,08:58:39,0.686,2.0,0.773,0.012
20/07/2022,08:59:39,0.698,2.0,0.784,0.011
20/07/2022,09:00:39,0.693,2.0,0.796,0.012
20/07/2022,09:01:39,0.700,2.0,0.807,0.011
20/07/2022,09:02:39,0.731,2.0,0.819,0.012
20/07/2022,09:03:47,0.747,2.0,0.834,0.015
20/07/2022,09:04:47,0.744,2.0,0.846,0.012
20/07/2022,09:05:40,0.731,2.0,0.857,0.011
20/07/2022,09:06:39,0.832,2.0,0.869,0.012
20/07/2022,09:07:39,0.872,2.0,0.884,0.015
20/07/2022,09:08:39,0.744,2.0,0.897,0.013
20/07/2022,09:09:47,0.765,2.0,0.911,0.014
20/07/2022,09:10:38,0.903,2.0,0.923,0.012
20/07/2022,09:11:40,0.844,2.0,0.937,0.014
20/07/2022,09:12:48,0.801,2.0,0.953,0.016
20/07/2022,09:13:39,0.755,2.0,0.964,0.011
20/07/2022,09:14:39,0.749,2.0,0.977,0.013
20/07/2022,09:15:40,0.754,2.0,0.99,0.013
20/07/2022,09:16:39,0.778,2.0,1.002,0.012
20/07/2022,09:17:48,0.786,2.0,1.017,0.015
20/07/2022,09:18:39,0.797,2.0,1.028,0.011
20/07/2022,09:19:39,0.779,2.0,1.042,0.014
20/07/2022,09:20:39,0.782,2.0,1.055,0.013
20/07/2022,09:21:39,0.773,2.0,1.068,0.013
20/07/2022,09:22:39,0.779,2.0,1.081,0.013
20/07/2022,09:23:39,0.792,2.0,1.094,0.013
20/07/2022,09:24:39,0.799,2.0,1.107,0.013
20/07/2022,09:25:39,0.814,2.0,1.122,0.015
20/07/2022,09:26:39,0.737,2.0,1.134,0.012
20/07/2022,09:27:39,0.734,2.0,1.146,0.012
20/07/2022,09:28:39,0.857,2.0,1.16,0.014
20/07/2022,09:29:39,0.746,2.0,1.173,0.013
20/07/2022,09:30:39,0.755,2.0,1.186,0.013
20/07/2022,09:31:39,0.832,2.0,1.199,0.013
20/07/2022,09:32:39,0.779,2.0,1.214,0.015
20/07/2022,09:33:55,0.698,2.0,1.229,0.015
20/07/2022,09:35:48,0.625,1.0,1.25,0.021
20/07/2022,09:36:39,0.591,1.0,1.259,0.009
20/07/2022,09:37:39,0.577,1.0,1.269,0.01
20/07/2022,09:38:39,0.613,1.0,1.278,0.009
20/07/2022,09:39:39,0.624,1.0,1.289,0.011
20/07/2022,09:40:39,0.630,1.0,1.299,0.01
20/07/2022,09:41:39,0.649,1.0,1.31,0.011
20/07/2022,09:42:39,0.627,1.0,1.32,0.01
20/07/2022,09:43:39,0.591,1.0,1.331,0.011
20/07/2022,09:44:39,0.589,1.0,1.34,0.009
20/07/2022,09:45:39,0.652,1.0,1.351,0.011
20/07/2022,09:46:47,0.732,2.0,1.364,0.013
20/07/2022,09:47:39,0.746,2.0,1.375,0.011
20/07/2022,09:48:40,0.718,2.0,1.387,0.012
20/07/2022,09:49:48,0.740,2.0,1.401,0.014
20/07/2022,09:50:39,0.760,2.0,1.411,0.01
20/07/2022,09:51:39,0.790,2.0,1.425,0.014
20/07/2022,09:52:39,0.833,2.0,1.437,0.012
20/07/2022,09:53:39,0.801,2.0,1.451,0.014
20/07/2022,09:54:39,0.742,2.0,1.464,0.013
20/07/2022,09:55:39,0.735,2.0,1.476,0.012
20/07/2022,09:56:41,0.785,2.0,1.489,0.013
20/07/2022,09:57:39,0.866,2.0,1.503,0.014
20/07/2022,09:58:39,0.762,2.0,1.516,0.013
20/07/2022,09:59:39,0.755,2.0,1.528,0.012
20/07/2022,10:00:39,0.764,2.0,1.541,0.013
20/07/2022,10:01:39,0.808,2.0,1.554,0.013
20/07/2022,10:02:39,0.835,2.0,1.567,0.013
20/07/2022,10:03:40,0.846,2.0,1.582,0.015
20/07/2022,10:04:39,0.863,2.0,1.596,0.014
20/07/2022,10:05:39,0.883,2.0,1.611,0.015
20/07/2022,10:06:39,0.941,2.0,1.626,0.015
20/07/2022,10:07:39,1.058,2.0,1.643,0.017
20/07/2022,10:08:40,0.950,2.0,1.659,0.016
20/07/2022,10:09:39,0.771,2.0,1.673,0.014
20/07/2022,10:10:40,0.752,2.0,1.685,0.012
20/07/2022,10:11:39,0.746,2.0,1.698,0.013
20/07/2022,10:12:39,0.710,2.0,1.711,0.013
20/07/2022,10:13:39,0.648,1.0,1.722,0.011
20/07/2022,10:14:39,0.613,1.0,1.733,0.011
20/07/2022,10:15:39,0.625,1.0,1.743,0.01
20/07/2022,10:16:39,0.637,1.0,1.753,0.01
20/07/2022,10:17:39,0.659,2.0,1.764,0.011
20/07/2022,10:18:39,0.674,2.0,1.775,0.011
20/07/2022,10:19:47,0.692,2.0,1.788,0.013
20/07/2022,10:20:39,0.720,2.0,1.798,0.01
20/07/2022,10:21:47,0.790,2.0,1.813,0.015
20/07/2022,10:22:39,0.862,2.0,1.824,0.011